Location: Cardiff
(53.7833°N, 113.6000°W)
Time: 06:57:11
(UTC+00:00)

SO-50 - Pass Details

Date: 09 December 2023
Orbit: 608 x 660 km, 64.6° (Epoch: 02 March)

Event Time Altitude Azimuth Distance (km) Brightness Sun altitude
Exits shadow 14:31:30 11° 316° (NW) 2,008 ? -9.3°
Maximum altitude 14:34:59 22° 6° (N) 1,405 ? -8.8°
Drops below altitude 10° 14:38:33 10° 57° (ENE) 2,016 ? -8.3°
Sets 14:41:16 0° 73° (ENE) 2,912 ? -8.0°
